When you browse on this site, cookies collect data to enhance your experience and personalize the content and advertising you see.
Visit our Privacy Policy to learn more. By continuing to use the site, you agree to this use of cookies and data.

Hourly Weather Córdoba

Today, 13 July, Monday

Time Temperature Precipitation Wind Pressure Humidity
00:00 +7°C° 0 mm 0 mps 725 mmHg 50%
01:00 +7°C° 0 mm 0 mps 726 mmHg 51%
02:00 +7°C° 0 mm 0 mps 726 mmHg 52%
03:00 +6°C° 0 mm 0 mps 726 mmHg 53%
04:00 +7°C° 0 mm 1 mps 726 mmHg 54%
05:00 +6°C° 0 mm 1 mps 726 mmHg 55%
06:00 +6°C° 0 mm 1 mps 727 mmHg 55%
07:00 +5°C° 0 mm 2 mps 727 mmHg 55%
08:00 +4°C° 0 mm 2 mps 728 mmHg 55%
09:00 +6°C° 0 mm 2 mps 729 mmHg 51%
10:00 +8°C° 0 mm 2 mps 729 mmHg 47%
11:00 +9°C° 0 mm 2 mps 730 mmHg 43%
12:00 +10°C° 0 mm 2 mps 729 mmHg 42%
13:00 +12°C° 0 mm 2 mps 729 mmHg 40%
14:00 +13°C° 0 mm 2 mps 728 mmHg 39%
15:00 +13°C° 0 mm 2 mps 728 mmHg 40%
16:00 +12°C° 0 mm 2 mps 729 mmHg 42%
17:00 +12°C° 0 mm 1 mps 729 mmHg 44%
18:00 +11°C° 0 mm 1 mps 729 mmHg 48%
19:00 +9°C° 0 mm 1 mps 729 mmHg 52%
20:00 +8°C° 0 mm 1 mps 730 mmHg 56%
21:00 +8°C° 0 mm 1 mps 730 mmHg 57%
22:00 +8°C° 0 mm 1 mps 730 mmHg 58%
23:00 +6°C° 0 mm 2 mps 730 mmHg 60%

Tomorrow, 14 July, Tuesday

Time Temperature Precipitation Wind Pressure Humidity
00:00 +6°C° 0 mm 2 mps 730 mmHg 61%
01:00 +7°C° 0 mm 1 mps 730 mmHg 61%
02:00 +7°C° 0 mm 1 mps 730 mmHg 62%
03:00 +7°C° 0 mm 1 mps 729 mmHg 64%
04:00 +7°C° 0 mm 1 mps 729 mmHg 65%
05:00 +6°C° 0 mm 1 mps 729 mmHg 66%
06:00 +6°C° 0 mm 1 mps 729 mmHg 66%
07:00 +7°C° 0 mm 1 mps 730 mmHg 66%
08:00 +7°C° 0 mm 1 mps 730 mmHg 65%
09:00 +8°C° 0 mm 2 mps 730 mmHg 57%
10:00 +11°C° 0 mm 3 mps 730 mmHg 48%
11:00 +14°C° 0 mm 3 mps 730 mmHg 40%
12:00 +15°C° 0 mm 4 mps 729 mmHg 37%
13:00 +16°C° 0 mm 5 mps 729 mmHg 35%
14:00 +17°C° 0 mm 5 mps 728 mmHg 33%
15:00 +16°C° 0 mm 5 mps 727 mmHg 36%
16:00 +15°C° 0 mm 5 mps 727 mmHg 39%
17:00 +14°C° 0 mm 4 mps 726 mmHg 42%
18:00 +13°C° 0 mm 4 mps 727 mmHg 47%
19:00 +11°C° 0 mm 4 mps 727 mmHg 52%
20:00 +10°C° 0 mm 3 mps 727 mmHg 57%
21:00 +9°C° 0 mm 3 mps 727 mmHg 58%
22:00 +9°C° 0 mm 3 mps 727 mmHg 59%
23:00 +9°C° 0 mm 3 mps 727 mmHg 60%

Day after tomorrow, 15 July, Wednesday

Time Temperature Precipitation Wind Pressure Humidity
00:00 +7°C° 0 mm 4 mps 727 mmHg 61%
01:00 +7°C° 0 mm 4 mps 727 mmHg 62%
02:00 +7°C° 0 mm 4 mps 727 mmHg 63%
03:00 +6°C° 0 mm 4 mps 727 mmHg 65%
04:00 +6°C° 0 mm 4 mps 726 mmHg 67%
05:00 +7°C° 0 mm 3 mps 726 mmHg 70%
06:00 +7°C° 0 mm 3 mps 726 mmHg 69%
07:00 +7°C° 0 mm 3 mps 727 mmHg 69%
08:00 +7°C° 0 mm 3 mps 727 mmHg 69%
09:00 +10°C° 0 mm 4 mps 727 mmHg 60%
10:00 +12°C° 0 mm 4 mps 727 mmHg 51%
11:00 +14°C° 0 mm 5 mps 727 mmHg 43%
12:00 +15°C° 0 mm 5 mps 727 mmHg 41%
13:00 +16°C° 0 mm 5 mps 726 mmHg 39%
14:00 +17°C° 0 mm 5 mps 725 mmHg 37%
15:00 +16°C° 0 mm 5 mps 725 mmHg 38%
16:00 +15°C° 0 mm 4 mps 725 mmHg 39%
17:00 +14°C° 0 mm 3 mps 725 mmHg 40%
18:00 +12°C° 0 mm 3 mps 725 mmHg 43%
19:00 +11°C° 0 mm 3 mps 725 mmHg 46%
20:00 +9°C° 0 mm 3 mps 725 mmHg 50%
21:00 +9°C° 0 mm 3 mps 725 mmHg 51%
22:00 +8°C° 0 mm 3 mps 726 mmHg 52%
23:00 +8°C° 0 mm 2 mps 726 mmHg 52%

16 July, Thursday

Time Temperature Precipitation Wind Pressure Humidity
00:00 +8°C° 0 mm 2 mps 726 mmHg 53%
01:00 +7°C° 0 mm 2 mps 725 mmHg 54%
02:00 +8°C° 0 mm 1 mps 725 mmHg 55%
03:00 +8°C° 0 mm 1 mps 725 mmHg 56%
04:00 +7°C° 0 mm 1 mps 725 mmHg 58%
05:00 +7°C° 0 mm 1 mps 725 mmHg 59%
06:00 +7°C° 0 mm 1 mps 725 mmHg 58%
07:00 +8°C° 0 mm 1 mps 725 mmHg 57%
08:00 +7°C° 0 mm 0 mps 725 mmHg 56%
09:00 +11°C° 0 mm 1 mps 725 mmHg 50%
10:00 +13°C° 0 mm 1 mps 725 mmHg 43%
11:00 +16°C° 0 mm 2 mps 726 mmHg 37%
12:00 +17°C° 0 mm 2 mps 725 mmHg 35%
13:00 +18°C° 0 mm 3 mps 724 mmHg 33%
14:00 +19°C° 0 mm 3 mps 724 mmHg 31%
15:00 +18°C° 0 mm 3 mps 723 mmHg 33%
16:00 +18°C° 0 mm 3 mps 723 mmHg 35%
17:00 +17°C° 0 mm 3 mps 723 mmHg 37%
18:00 +14°C° 0 mm 3 mps 723 mmHg 43%
19:00 +12°C° 0 mm 3 mps 723 mmHg 49%
20:00 +10°C° 0 mm 2 mps 723 mmHg 54%
21:00 +10°C° 0 mm 2 mps 723 mmHg 56%
22:00 +9°C° 0 mm 2 mps 723 mmHg 57%
23:00 +9°C° 0 mm 2 mps 723 mmHg 59%

17 July, Friday

Time Temperature Precipitation Wind Pressure Humidity
00:00 +9°C° 0 mm 3 mps 723 mmHg 60%
01:00 +9°C° 0 mm 3 mps 722 mmHg 60%
02:00 +9°C° 0 mm 3 mps 722 mmHg 61%
03:00 +9°C° 0 mm 3 mps 722 mmHg 63%
04:00 +9°C° 0 mm 3 mps 721 mmHg 65%
05:00 +9°C° 0 mm 3 mps 721 mmHg 67%
06:00 +10°C° 0 mm 3 mps 721 mmHg 70%
07:00 +10°C° 0 mm 4 mps 721 mmHg 72%
08:00 +10°C° 0 mm 4 mps 721 mmHg 74%
09:00 +13°C° 0 mm 4 mps 721 mmHg 67%
10:00 +16°C° 0 mm 5 mps 721 mmHg 60%
11:00 +20°C° 0 mm 6 mps 721 mmHg 53%
12:00 +21°C° 0 mm 6 mps 720 mmHg 51%
13:00 +22°C° 0 mm 6 mps 719 mmHg 49%
14:00 +23°C° 0 mm 6 mps 718 mmHg 47%
15:00 +22°C° 0 mm 6 mps 718 mmHg 52%
16:00 +21°C° 0 mm 5 mps 718 mmHg 57%
17:00 +21°C° 0 mm 5 mps 718 mmHg 62%
18:00 +19°C° 0 mm 4 mps 718 mmHg 70%
19:00 +17°C° 0 mm 4 mps 718 mmHg 78%
20:00 +16°C° 0 mm 3 mps 718 mmHg 86%
21:00 +15°C° 0 mm 2 mps 718 mmHg 86%
22:00 +15°C° 0 mm 2 mps 719 mmHg 87%
23:00 +15°C° 0 mm 1 mps 719 mmHg 87%

18 July, Saturday

Time Temperature Precipitation Wind Pressure Humidity
00:00 +15°C° 0 mm 1 mps 719 mmHg 88%
01:00 +15°C° 0 mm 1 mps 719 mmHg 88%
02:00 +14°C° 0 mm 1 mps 718 mmHg 88%
03:00 +14°C° 0 mm 1 mps 718 mmHg 89%
04:00 +14°C° 0 mm 1 mps 718 mmHg 90%
05:00 +13°C° 0 mm 1 mps 718 mmHg 90%
06:00 +13°C° 0 mm 1 mps 719 mmHg 89%
07:00 +13°C° 0 mm 2 mps 719 mmHg 87%
08:00 +13°C° 0 mm 2 mps 720 mmHg 86%
09:00 +14°C° 0 mm 3 mps 720 mmHg 78%
10:00 +17°C° 0 mm 3 mps 721 mmHg 69%
11:00 +19°C° 0 mm 3 mps 721 mmHg 61%
12:00 +19°C° 0 mm 3 mps 721 mmHg 64%
13:00 +19°C° 0 mm 3 mps 720 mmHg 68%
14:00 +19°C° 0 mm 3 mps 720 mmHg 71%
15:00 +18°C° 0 mm 2 mps 720 mmHg 76%
16:00 +18°C° 0 mm 2 mps 720 mmHg 81%
17:00 +17°C° 0 mm 2 mps 720 mmHg 85%
18:00 +18°C° 0.1 mm 1 mps 720 mmHg 88%
19:00 +18°C° 0.1 mm 1 mps 721 mmHg 90%
20:00 +16°C° 0.1 mm 1 mps 721 mmHg 92%
21:00 +16°C° 0.1 mm 1 mps 721 mmHg 93%
22:00 +16°C° 0.1 mm 1 mps 721 mmHg 93%
23:00 +16°C° 0.1 mm 1 mps 721 mmHg 94%
Show more